Showing default

COSMOS 2550, 48865

Orbit data source: Space-Track

COSMOS 2550, 48865 is a payload satellite owned by VVKO VKS (CIS) in LEO that was launched on Fri, 25 Jun 2021 UTC via a SOYUZ-2-1B launch vehicle from the Plesetsk Missile And Space Complex (PKMTR). Payload-class satellites include a variety of spacecraft equipped with specific instruments for various scientific and technological missions. These include communications satellites like Starlink; space stations such as the ISS; scientific satellites like the Hubble; Earth observation satellites from companies like Planet Labs, Umbra, and HawkEye 360; GPS; miniature CubeSats for education and research; and military/defense satellites.

Loading next visibility...
Identifier
48865, 2021-056A
Orbit
LEO
Country
Flag of CISCIS
Related business
Manufacturer
TSSKBP/ARSLO
Mission
Operational Defense Sigint
Bus & Motor
PION-NKS, Unknown motor
Mass
7,231 kg wet, ~6,700 kg dry
Launch date (UTC)
2021-06-25 (5 years ago)
Launch vehicle
SOYUZ-2-1B
Launch site
Plesetsk Missile And Space Complex (PKMTR)
Object type
Payload
Rocket body
Debris
Shape & HBR
Cyl + 2 Pan, 4.3 m
Radar Cross Section
24.037 m², Large (>1 m²)

Expand to show TLE details & history
Last TLE update: 6 hours ago

TLE from 6 hours ago
0 COSMOS 2550
1 48865U 21056A   26110.51100190 -.00000201  00000-0 -26623-6 0  9992
2 48865  67.1423 274.3740 0008446 269.4253  90.5933 15.33828946269876
Epoch: 2026-04-20T12:15Z
TLE epoch observation values (Epoch: 2026-04-20T12:15:50.564Z)
Latitude
-0.00007°
Longitude
-118.1868°
Altitude
466.709 km
Speed
7.633 km/s
True Right ascension
18h 17m 29s
True Declination
0° 00' 00"
Sunlit
Object was in full shadow at epoch
Visualization orbit readout
Latitude
Unknown
Longitude
Unknown
Altitude
Unknown
Speed
Unknown
Apparent Right ascension
Unknown
Apparent Declination
Unknown
Sunlit
N/A
Visualization observer readout
Local Sidereal Time
01:33:52
Azimuth
Unknown
Elevation
Unknown
Doppler factor
Unknown
Orbital elements
Apogee altitude
468.422 km
Perigee altitude
456.866 km
Semi-major axis
6,840.781 km
Eccentricity
0.00084
Inclination
67.1423°
RAAN
274.374°
Arg. of periapsis
269.4253°
True anomaly
90.69008°
Mean anomaly
90.5933°
Eccentric anomaly
90.64169°
Mean motion
3.83605 °/min
Orbital period
93.85 mins
BSTAR
-2.6623e-7
Loading maneuver chart data...
Computing Atmospheric mass density...
Loading historical data...
Loading historical data...
Loading historical data...
Loading historical data...
Loading historical data...
Loading historical data...
Loading historical data...
Other satellites on launch #56 in the year 2021 (2021-06-25 UTC)

Documentation

Showing up to 5 results
|